loading
|

OBJECT H, 60752

Orbit data source: Space-Track

OBJECT H, 60752 is a satellite owned by Xinghe Dongli (CN) in SSO that was launched on Thu, 29 Aug 2024 UTC launched from the Yellow Sea Launch Area, China (YSLA). Unknown objects in Earth's orbit typically refer to objects detected orbiting the Earth but have not yet been identified or cataloged. These objects could be anything from previously untracked satellites, spent rocket stages, debris from satellite collisions, or even natural meteoroids temporarily captured by Earth's gravity.

Loading next visibility...
Loading greatness...
OBJECT H details
Identifier
60752, 2024-153H
Orbit
SSO
Last TLE update3 weeks ago
Origin
Flag of CNXinghe Dongli (CN / PRC)
ManufacturerXinghe Dongli
Mission statusUnknown
MissionUnknown
Bus & MotorUnknown
MassUnknown
Launch date (UTC)
2024-08-29 (3 weeks ago)
Launch vehicleUnknown
Launch site
Yellow Sea Launch Area, China (YSLA)
Object typeUnknown
Radar Cross SectionLarge (>1 m²)

Expand to show TLE details & history

TLE from 3 weeks ago
0 OBJECT H
1 60752U 24153H   24242.34728060 -.00000069  00000-0  00000+0 0  9994
2 60752  97.3719   0.5652 0013970  33.0832  33.4934 15.22204973    28
Epoch: 2024-08-29T08:20Z
Definitive object data (Epoch: 2024-08-29T08:20:05.043Z)
Latitude65.68107°
Longitude-119.03337°
Altitude502.55 km
Speed7.624 km/s
True Right ascension22h 56m 05s
True Declination65° 32' 49"
Sunlit
Object was in daylight at TLE epoch
Predictive object data (real-time)
Latitude-47.64994°
Longitude-75.19162°
Altitude508.314 km
Speed7.614 km/s
Apparent Right ascension02h 20m 15s
Apparent Declination-43° 57' 45"
Sunlit
Object is in full shadow
Predictive observer data (real-time)
Local Sidereal Time14:47:34
Azimuth130.791° SE
Elevation-83.51°
Doppler factor1
Orbital elements
Apogee505.756 km
Perigee486.549 km
Semi-major axis6,874.29 km
Eccentricity0.001397
Inclination97.3719°
RAAN0.5652°
Arg. of periapsis33.0832°
True anomaly33.58187°
Mean anomaly33.4934°
Eccentric anomaly33.53762°
Mean motion3.80804 °/min
BSTARUnknown
Period94.54 mins
No data available

OBJECT H Visibility forecast

Observer location: 39.9160978°, -105.1181434

OBJECT H is not visible in the next 10 days
Span
Click to sort rows by Start time (UTC) header in descending order
Start Az.
Max El. time (UTC)
Max El. Az.
Max El.
End time (UTC)
End Az.